Weather observations for the past three days for
Delaware Airpark
| Date | Time (edt) | Wind (kph) | Vis. (km) | Weather | Sky Cond. | Temperature (ºC) | Relative Humidity | Wind Chill (°C) | Heat Index (°C) | Pressure | Precipitation (cm) | ||||||
|---|---|---|---|---|---|---|---|---|---|---|---|---|---|---|---|---|---|
| Air | Dwpt | 6 hour | altimeter (cm) | sea level (mb) | 1 hr | 3 hr | 6 hr | ||||||||||
| Max. | Min. | ||||||||||||||||
| 06 | 21:35 | S 9 | 16.09 | NULL | NULL | 19 | 17 | 88% | 75.69 | 0.0 | |||||||
| 06 | 21:15 | SW 7 | 16.09 | NULL | NULL | 19 | 17 | 88% | 75.67 | 0.0 | |||||||
| 06 | 20:55 | S 9 | 16.09 | NULL | NULL | 19 | 17 | 88% | 75.67 | 0.0 | |||||||
| 06 | 20:35 | SW 9 | 16.09 | NULL | NULL | 20 | 16 | 78% | 75.69 | 0.0 | |||||||
| 06 | 20:15 | SW 11 | 16.09 | NULL | NULL | 19 | 16 | 83% | 75.67 | 0.0 | |||||||
| 06 | 19:55 | SW 7 | 16.09 | A Few Clouds | FEW024 | 20 | 16 | 78% | 75.64 | 0.0 | |||||||
| 06 | 19:35 | SW 9 | 16.09 | Mostly Cloudy | BKN024 | 20 | 16 | 78% | 75.64 | 0.0 | |||||||
| 06 | 19:15 | SW 13 | 16.09 | Mostly Cloudy | BKN025 | 21 | 16 | 73% | 75.64 | 0.0 | |||||||
| 06 | 18:55 | SW 17 | 16.09 | Overcast | OVC026 | 21 | 16 | 73% | 75.64 | 0.0 | |||||||
| 06 | 18:35 | SW 17 | 16.09 | Overcast | OVC026 | 21 | 16 | 73% | 75.64 | 0.0 | |||||||
| 06 | 18:15 | SW 15 G 31 | 16.09 | Mostly Cloudy | BKN026 | 21 | 16 | 73% | 75.62 | 0.0 | |||||||
| 06 | 17:55 | SW 24 G 35 | 16.09 | Partly Cloudy | SCT028 | 21 | 16 | 73% | 75.62 | 0.0 | |||||||
| 06 | 17:35 | SW 24 | 16.09 | Overcast | OVC027 | 21 | 16 | 73% | 75.62 | 0.0 | |||||||
| 06 | 17:15 | SW 30 G 41 | 16.09 | Overcast | OVC027 | 21 | 16 | 73% | 75.62 | 0.0 | |||||||
| 06 | 16:55 | SW 20 G 35 | 16.09 | Mostly Cloudy | BKN026 | 22 | 16 | 69% | 75.59 | 0.0 | |||||||
| 06 | 16:35 | SW 20 G 31 | 16.09 | Partly Cloudy | SCT026 | 22 | 16 | 69% | 75.59 | 0.0 | |||||||
| 06 | 16:15 | SW 15 G 31 | 16.09 | A Few Clouds | FEW028 FEW080 | 22 | 16 | 69% | 75.59 | 0.0 | |||||||
| 06 | 15:55 | SW 24 G 41 | 16.09 | Fair | CLR | 22 | 16 | 69% | 75.59 | 0.0 | |||||||
| 06 | 15:35 | SW 26 G 37 | 16.09 | A Few Clouds | FEW027 FEW075 | 21 | 16 | 73% | 75.59 | 0.0 | |||||||
| 06 | 15:15 | SW 17 G 41 | 16.09 | Mostly Cloudy | BKN028 BKN075 | 21 | 16 | 73% | 75.62 | 0.0 | |||||||
| 06 | 14:55 | SW 26 G 48 | 16.09 | Mostly Cloudy | BKN026 BKN031 | 21 | 16 | 73% | 75.64 | 0.0 | |||||||
| 06 | 14:35 | SW 22 G 46 | 16.09 | Mostly Cloudy | BKN026 | 21 | 16 | 73% | 75.64 | 0.0 | |||||||
| 06 | 14:15 | SW 28 G 46 | 16.09 | Mostly Cloudy | BKN026 BKN032 | 20 | 16 | 78% | 75.64 | 0.0 | |||||||
| 06 | 13:55 | SW 33 G 48 | 16.09 | Overcast and Breezy | BKN025 OVC032 | 20 | 16 | 78% | 75.67 | 0.0 | |||||||
| 06 | 13:35 | SW 31 G 44 | 16.09 | Mostly Cloudy | SCT023 BKN029 BKN065 | 19 | 17 | 88% | 75.67 | 0.0 | |||||||
| 06 | 13:15 | SW 24 G 37 | 16.09 | Mostly Cloudy | FEW024 SCT044 BKN065 | 19 | 17 | 88% | 75.69 | 0.0 | |||||||
| 06 | 12:55 | S 24 | 16.09 | Partly Cloudy | FEW048 SCT065 | 18 | 17 | 94% | 75.69 | 0.0 | |||||||
| 06 | 12:35 | S 15 G 33 | 14.48 | A Few Clouds | FEW049 | 18 | 17 | 94% | 75.72 | 0.0 | |||||||
| 06 | 12:15 | S 17 G 31 | 12.87 | Fair | CLR | 18 | 16 | 88% | 75.72 | 0.0 | |||||||
| 06 | 11:55 | SW 24 | 11.27 | Fair | CLR | 19 | 15 | 78% | 75.79 | 0.0 | |||||||
| 06 | 11:35 | SW 22 G 35 | 16.09 | Fair | CLR | 19 | 14 | 73% | 75.79 | 0.0 | |||||||
| 06 | 11:15 | SW 24 G 33 | 16.09 | Fair | CLR | 20 | 14 | 69% | 75.79 | 0.0 | |||||||
| 06 | 10:55 | SW 22 G 43 | 16.09 | Fair | CLR | 21 | 13 | 60% | 75.79 | 0.0 | |||||||
| 06 | 10:35 | SW 20 G 44 | 16.09 | A Few Clouds | FEW070 | 22 | 13 | 57% | 75.79 | 0.0 | |||||||
| 06 | 10:15 | S 24 G 39 | 16.09 | Mostly Cloudy | BKN070 | 21 | 12 | 57% | 75.79 | 0.0 | |||||||
| 06 | 09:55 | SW 22 G 35 | 16.09 | A Few Clouds | FEW070 | 21 | 13 | 60% | 75.79 | 0.0 | |||||||
| 06 | 09:35 | SW 26 G 44 | 16.09 | Fair | CLR | 21 | 12 | 57% | 75.77 | 0.0 | |||||||
| 06 | 09:15 | SW 22 G 37 | 16.09 | Fair | CLR | 21 | 12 | 57% | 75.79 | 0.0 | |||||||
| 06 | 08:55 | S 24 G 41 | 16.09 | Fair | CLR | 20 | 12 | 60% | 75.79 | 0.0 | |||||||
| 06 | 08:35 | SW 22 G 33 | 16.09 | Fair | CLR | 20 | 12 | 60% | 75.82 | 0.0 | |||||||
| 06 | 08:15 | SW 30 G 46 | 16.09 | Fair | CLR | 20 | 12 | 60% | 75.82 | 0.0 | |||||||
| 06 | 07:55 | SW 24 G 43 | 16.09 | Fair | CLR | 19 | 12 | 64% | 75.82 | 0.0 | |||||||
| 06 | 07:35 | S 19 G 31 | 16.09 | Fair | CLR | 19 | 12 | 64% | 75.79 | 0.0 | |||||||
| 06 | 07:15 | SW 24 G 37 | 16.09 | Fair | CLR | 19 | 12 | 64% | 75.79 | 0.0 | |||||||
| 06 | 06:55 | SW 19 G 31 | 16.09 | Fair | CLR | 18 | 13 | 73% | 75.79 | 0.0 | |||||||
| 06 | 06:35 | SW 26 G 37 | 16.09 | Fair | CLR | 18 | 13 | 73% | 75.79 | 0.0 | |||||||
| 06 | 06:15 | S 22 G 37 | 16.09 | NULL | NULL | 18 | 13 | 73% | 75.79 | 0.0 | |||||||
| 06 | 05:55 | S 20 G 39 | 16.09 | NULL | NULL | 18 | 13 | 73% | 75.79 | 0.0 | |||||||
| 06 | 05:35 | SW 24 G 33 | 16.09 | NULL | NULL | 18 | 13 | 73% | 75.79 | 0.0 | |||||||
| 06 | 05:15 | SW 20 G 35 | 16.09 | NULL | NULL | 18 | 13 | 73% | 75.77 | 0.0 | |||||||
| 06 | 04:55 | S 24 | 16.09 | NULL | NULL | 18 | 14 | 78% | 75.77 | 0.0 | |||||||
| 06 | 04:35 | SW 20 G 33 | 16.09 | NULL | NULL | 18 | 14 | 78% | 75.77 | 0.0 | |||||||
| 06 | 04:15 | S 24 G 35 | 16.09 | NULL | NULL | 19 | 14 | 73% | 75.79 | 0.0 | |||||||
| 06 | 03:55 | SW 19 G 44 | 16.09 | NULL | NULL | 19 | 14 | 73% | 75.79 | 0.0 | |||||||
| 06 | 03:35 | SW 17 G 35 | 16.09 | NULL | NULL | 19 | 14 | 73% | 75.82 | 0.0 | |||||||
| 06 | 03:15 | SW 19 G 33 | 16.09 | NULL | NULL | 19 | 14 | 73% | 75.79 | 0.0 | |||||||
| 06 | 02:55 | SW 26 G 43 | 16.09 | NULL | NULL | 19 | 14 | 73% | 75.79 | 0.0 | |||||||
| 06 | 02:35 | S 22 G 39 | 16.09 | NULL | NULL | 20 | 14 | 69% | 75.82 | 0.0 | |||||||
| 06 | 02:15 | S 22 G 41 | 16.09 | NULL | NULL | 20 | 14 | 69% | 75.82 | 0.0 | |||||||
| 06 | 01:55 | SW 22 G 43 | 16.09 | NULL | NULL | 20 | 14 | 69% | 75.82 | 0.0 | |||||||
| 06 | 01:35 | SW 24 G 35 | 16.09 | NULL | NULL | 21 | 14 | 64% | 75.82 | 0.0 | |||||||
| 06 | 01:15 | SW 22 G 41 | 16.09 | NULL | NULL | 21 | 14 | 64% | 75.84 | 0.0 | |||||||
| 06 | 00:55 | S 22 | 16.09 | NULL | NULL | 21 | 14 | 64% | 75.84 | 0.0 | |||||||
| 06 | 00:35 | S 19 G 33 | 16.09 | NULL | NULL | 21 | 14 | 64% | 75.84 | 0.0 | |||||||
| 06 | 00:15 | S 20 G 31 | 16.09 | NULL | NULL | 21 | 14 | 64% | 75.84 | 0.0 | |||||||
| 05 | 23:55 | S 24 G 37 | 16.09 | NULL | NULL | 21 | 14 | 64% | 75.84 | 0.0 | |||||||
| 05 | 23:35 | S 22 | 16.09 | NULL | NULL | 21 | 14 | 64% | 75.84 | 0.0 | |||||||
| 05 | 23:15 | S 15 | 16.09 | NULL | NULL | 21 | 13 | 60% | 75.84 | 0.0 | |||||||
| 05 | 22:55 | Vrbl 11 G 20 | 16.09 | NULL | NULL | 21 | 13 | 60% | 75.87 | 0.0 | |||||||
| 05 | 22:35 | S 15 | 16.09 | NULL | NULL | 21 | 12 | 57% | 75.87 | 0.0 | |||||||
| 05 | 22:15 | S 15 | 16.09 | NULL | NULL | 21 | 12 | 57% | 75.87 | 0.0 | |||||||
| 05 | 21:55 | S 13 G 26 | 16.09 | NULL | NULL | 22 | 12 | 53% | 75.84 | 0.0 | |||||||
| 05 | 21:35 | S 19 G 30 | 16.09 | NULL | NULL | 22 | 12 | 53% | 75.82 | 0.0 | |||||||
| 05 | 21:15 | S 15 G 26 | 16.09 | NULL | NULL | 23 | 11 | 47% | 75.79 | 0.0 | |||||||
| 05 | 20:55 | S 15 G 35 | 16.09 | NULL | NULL | 23 | 11 | 47% | 75.79 | 0.0 | |||||||
| 05 | 20:35 | S 15 G 24 | 16.09 | NULL | NULL | 23 | 11 | 47% | 75.77 | 0.0 | |||||||
| 05 | 20:15 | S 17 G 39 | 16.09 | NULL | NULL | 24 | 10 | 41% | 25 | 75.77 | 0.0 | ||||||
| 05 | 19:55 | S 19 G 39 | 16.09 | Fair | CLR | 24 | 10 | 41% | 25 | 75.74 | 0.0 | ||||||
| 05 | 19:35 | S 13 G 28 | 16.09 | Fair | CLR | 24 | 10 | 41% | 25 | 75.77 | 0.0 | ||||||
| 05 | 19:15 | SW 28 G 48 | 16.09 | Fair | CLR | 25 | 9 | 36% | 26 | 75.74 | 0.0 | ||||||
| 05 | 18:55 | S 20 G 31 | 16.09 | Fair | CLR | 25 | 9 | 36% | 26 | 75.74 | 0.0 | ||||||
| 05 | 18:35 | S 19 G 37 | 16.09 | Fair | CLR | 26 | 9 | 34% | 26 | 75.74 | 0.0 | ||||||
| 05 | 18:15 | S 24 G 39 | 16.09 | Fair | CLR | 27 | 9 | 32% | 27 | 75.74 | 0.0 | ||||||
| 05 | 17:55 | S 24 G 46 | 16.09 | Fair | CLR | 27 | 9 | 32% | 27 | 75.74 | 0.0 | ||||||
| 05 | 17:35 | S 28 G 39 | 16.09 | Fair | CLR | 27 | 9 | 32% | 27 | 75.74 | 0.0 | ||||||
| 05 | 17:15 | S 33 G 43 | 16.09 | Fair and Breezy | CLR | 27 | 9 | 32% | 27 | 75.74 | 0.0 | ||||||
| 05 | 16:55 | SW 30 G 41 | 16.09 | Fair | CLR | 27 | 10 | 34% | 27 | 75.72 | 0.0 | ||||||
| 05 | 16:35 | SW 22 G 48 | 16.09 | Fair | CLR | 27 | 10 | 34% | 27 | 75.72 | 0.0 | ||||||
| 05 | 16:15 | S 26 G 46 | 16.09 | Fair | CLR | 28 | 10 | 32% | 27 | 75.72 | 0.0 | ||||||
| 05 | 15:55 | SW 31 G 52 | 16.09 | Fair | CLR | 28 | 9 | 30% | 27 | 75.74 | 0.0 | ||||||
| 05 | 15:35 | SW 22 G 41 | 16.09 | Fair | CLR | 28 | 9 | 30% | 27 | 75.74 | 0.0 | ||||||
| 05 | 15:15 | SW 24 G 46 | 16.09 | Fair | CLR | 28 | 9 | 30% | 27 | 75.77 | 0.0 | ||||||
| 05 | 14:55 | SW 26 G 43 | 16.09 | Fair | CLR | 28 | 9 | 30% | 27 | 75.77 | 0.0 | ||||||
| 05 | 14:35 | SW 31 G 44 | 16.09 | Fair | CLR | 28 | 8 | 28% | 27 | 75.79 | 0.0 | ||||||
| 05 | 14:15 | SW 22 G 37 | 16.09 | Fair | CLR | 28 | 10 | 32% | 27 | 75.82 | 0.0 | ||||||
| 05 | 13:55 | SW 28 G 41 | 16.09 | Fair | CLR | 28 | 10 | 32% | 27 | 75.82 | 0.0 | ||||||
| 05 | 13:35 | SW 28 G 39 | 16.09 | Fair | CLR | 28 | 10 | 32% | 27 | 75.84 | 0.0 | ||||||
| 05 | 13:15 | S 15 G 31 | 16.09 | Fair | CLR | 27 | 11 | 37% | 27 | 75.87 | 0.0 | ||||||
| 05 | 12:55 | SW 20 G 30 | 16.09 | Fair | CLR | 27 | 11 | 37% | 27 | 75.87 | 0.0 | ||||||
| 05 | 12:35 | SW 19 G 30 | 16.09 | Fair | CLR | 27 | 11 | 37% | 27 | 75.9 | 0.0 | ||||||
| 05 | 12:15 | SW 19 G 28 | 16.09 | Fair | CLR | 26 | 11 | 39% | 26 | 75.9 | 0.0 | ||||||
| 05 | 11:55 | SW 15 G 28 | 16.09 | Fair | CLR | 26 | 10 | 37% | 26 | 75.9 | 0.0 | ||||||
| 05 | 11:35 | SW 17 G 30 | 16.09 | Fair | CLR | 26 | 10 | 37% | 26 | 75.92 | 0.0 | ||||||
| 05 | 11:15 | SW 19 G 30 | 16.09 | Fair | CLR | 25 | 10 | 39% | 26 | 75.92 | 0.0 | ||||||
| 05 | 10:55 | SW 19 G 33 | 16.09 | Fair | CLR | 25 | 10 | 39% | 26 | 75.92 | 0.0 | ||||||
| 05 | 10:35 | SW 17 G 30 | 16.09 | Fair | CLR | 24 | 10 | 41% | 25 | 75.92 | 0.0 | ||||||
| 05 | 10:15 | SW 17 G 26 | 16.09 | Fair | CLR | 24 | 10 | 41% | 25 | 75.92 | 0.0 | ||||||
| 05 | 09:55 | SW 19 G 30 | 16.09 | Fair | CLR | 23 | 10 | 44% | 75.92 | 0.0 | |||||||
| 05 | 09:35 | SW 15 G 24 | 16.09 | Fair | CLR | 22 | 10 | 47% | 75.95 | 0.0 | |||||||
| 05 | 09:15 | SW 20 | 16.09 | Fair | CLR | 21 | 11 | 53% | 75.95 | 0.0 | |||||||
| 05 | 08:55 | SW 19 G 28 | 16.09 | Fair | CLR | 21 | 11 | 53% | 75.92 | 0.0 | |||||||
| 05 | 08:35 | SW 17 G 30 | 16.09 | Fair | CLR | 20 | 11 | 56% | 75.92 | 0.0 | |||||||
| 05 | 08:15 | SW 15 G 28 | 16.09 | Fair | CLR | 19 | 11 | 60% | 75.92 | 0.0 | |||||||
| 05 | 07:55 | SW 17 | 16.09 | Fair | CLR | 18 | 11 | 64% | 75.92 | 0.0 | |||||||
| 05 | 07:35 | SW 15 G 24 | 16.09 | Fair | CLR | 18 | 11 | 64% | 75.9 | 0.0 | |||||||
| 05 | 07:15 | SW 15 G 28 | 16.09 | Fair | CLR | 17 | 11 | 68% | 75.9 | 0.0 | |||||||
| 05 | 06:55 | SW 15 G 26 | 16.09 | Fair | CLR | 17 | 11 | 68% | 75.9 | 0.0 | |||||||
| 05 | 06:35 | SW 15 | 16.09 | Fair | CLR | 16 | 10 | 68% | 75.87 | 0.0 | |||||||
| 05 | 06:15 | SW 11 | 16.09 | NULL | NULL | 16 | 10 | 68% | 75.87 | 0.0 | |||||||
| 05 | 05:55 | Calm | 16.09 | NULL | NULL | 17 | 10 | 64% | 75.84 | 0.0 | |||||||
| 05 | 05:35 | Vrbl 11 G 24 | 16.09 | NULL | NULL | 17 | 10 | 64% | 75.84 | 0.0 | |||||||
| 05 | 05:15 | SW 15 G 24 | 16.09 | NULL | NULL | 17 | 10 | 64% | 75.84 | 0.0 | |||||||
| 05 | 04:55 | SW 13 G 26 | 16.09 | NULL | NULL | 17 | 10 | 64% | 75.84 | 0.0 | |||||||
| 05 | 04:35 | SW 15 | 16.09 | NULL | NULL | 17 | 10 | 64% | 75.84 | 0.0 | |||||||
| 05 | 04:15 | SW 19 G 28 | 16.09 | NULL | NULL | 18 | 10 | 60% | 75.84 | 0.0 | |||||||
| 05 | 03:55 | SW 17 G 26 | 16.09 | NULL | NULL | 17 | 11 | 68% | 75.82 | 0.0 | |||||||
| 05 | 03:35 | SW 17 | 16.09 | NULL | NULL | 17 | 11 | 68% | 75.82 | 0.0 | |||||||
| 05 | 03:15 | SW 15 | 16.09 | NULL | NULL | 17 | 11 | 68% | 75.82 | 0.0 | |||||||
| 05 | 02:55 | SW 13 | 16.09 | NULL | NULL | 17 | 11 | 68% | 75.82 | 0.0 | |||||||
| 05 | 02:35 | SW 15 | 16.09 | NULL | NULL | 17 | 11 | 68% | 75.82 | 0.0 | |||||||
| 05 | 02:15 | SW 15 | 16.09 | NULL | NULL | 17 | 11 | 68% | 75.82 | 0.0 | |||||||
| 05 | 01:55 | SW 13 | 16.09 | NULL | NULL | 17 | 11 | 68% | 75.82 | 0.0 | |||||||
| 05 | 01:35 | SW 17 | 16.09 | NULL | NULL | 16 | 11 | 72% | 75.82 | 0.0 | |||||||
| 05 | 01:15 | SW 13 | 16.09 | NULL | NULL | 16 | 11 | 72% | 75.82 | 0.0 | |||||||
| 05 | 00:55 | S 11 G 22 | 16.09 | NULL | NULL | 16 | 11 | 72% | 75.84 | 0.0 | |||||||
| 05 | 00:35 | S 15 G 24 | 16.09 | NULL | NULL | 16 | 10 | 68% | 75.84 | 0.0 | |||||||
| 05 | 00:15 | S 15 | 16.09 | NULL | NULL | 17 | 10 | 64% | 75.84 | 0.0 | |||||||
| 04 | 23:55 | S 11 | 16.09 | NULL | NULL | 17 | 10 | 64% | 75.84 | 0.0 | |||||||
| 04 | 23:35 | S 13 G 22 | 16.09 | NULL | NULL | 17 | 9 | 60% | 75.82 | 0.0 | |||||||
| 04 | 23:15 | S 15 G 26 | 16.09 | NULL | NULL | 17 | 9 | 60% | 75.82 | 0.0 | |||||||
| 04 | 22:55 | S 11 | 16.09 | NULL | NULL | 17 | 8 | 56% | 75.84 | 0.0 | |||||||
| 04 | 22:35 | S 13 | 16.09 | NULL | NULL | 17 | 8 | 56% | 75.84 | 0.0 | |||||||
| 04 | 22:15 | S 11 | 16.09 | NULL | NULL | 18 | 7 | 49% | 75.84 | 0.0 | |||||||
| 04 | 21:55 | Vrbl 9 | 16.09 | NULL | NULL | 18 | 6 | 46% | 75.84 | 0.0 | |||||||
| 04 | 21:35 | S 9 | 16.09 | NULL | NULL | 18 | 6 | 46% | 75.84 | 0.0 | |||||||
| 04 | 21:15 | S 13 | 16.09 | NULL | NULL | 19 | 5 | 40% | 75.82 | 0.0 | |||||||
| 04 | 20:55 | S 9 | 16.09 | NULL | NULL | 19 | 4 | 37% | 75.82 | 0.0 | |||||||
| 04 | 20:35 | S 11 | 16.09 | NULL | NULL | 19 | 4 | 37% | 75.79 | 0.0 | |||||||
| 04 | 20:15 | S 9 | 16.09 | NULL | NULL | 20 | 4 | 35% | 75.79 | 0.0 | |||||||
| 04 | 19:55 | S 9 | 16.09 | Fair | CLR | 20 | 4 | 35% | 75.79 | 0.0 | |||||||
| 04 | 19:35 | S 11 G 26 | 16.09 | Fair | CLR | 21 | 4 | 33% | 75.79 | 0.0 | |||||||
| 04 | 19:15 | SW 13 G 28 | 16.09 | Fair | CLR | 22 | 4 | 31% | 75.79 | 0.0 | |||||||
| 04 | 18:55 | S 15 G 30 | 16.09 | Fair | CLR | 22 | 4 | 31% | 75.77 | 0.0 | |||||||
| 04 | 18:35 | SW 15 G 28 | 16.09 | Fair | CLR | 23 | 4 | 29% | 75.77 | 0.0 | |||||||
| 04 | 18:15 | SW 13 G 33 | 16.09 | Fair | CLR | 24 | 4 | 27% | 25 | 75.77 | 0.0 | ||||||
| 04 | 17:55 | SW 19 G 33 | 16.09 | Fair | CLR | 24 | 4 | 27% | 25 | 75.77 | 0.0 | ||||||
| 04 | 17:35 | SW 19 G 37 | 16.09 | Fair | CLR | 24 | 4 | 27% | 25 | 75.79 | 0.0 | ||||||
| 04 | 17:15 | S 20 G 33 | 16.09 | Fair | CLR | 24 | 3 | 25% | 25 | 75.79 | 0.0 | ||||||
| 04 | 16:55 | SW 15 G 33 | 16.09 | Fair | CLR | 24 | 3 | 25% | 25 | 75.79 | 0.0 | ||||||
| 04 | 16:35 | W 17 G 35 | 16.09 | Fair | CLR | 23 | 3 | 27% | 75.79 | 0.0 | |||||||
| 04 | 16:15 | SW 22 G 35 | 16.09 | Fair | CLR | 24 | 3 | 25% | 25 | 75.82 | 0.0 | ||||||
| 04 | 15:55 | SW 26 | 16.09 | Fair | CLR | 24 | 3 | 25% | 25 | 75.84 | 0.0 | ||||||
| 04 | 15:35 | SW 22 | 16.09 | Fair | CLR | 23 | 3 | 27% | 75.84 | 0.0 | |||||||
| 04 | 15:15 | Vrbl 9 G 24 | 16.09 | Fair | CLR | 23 | 2 | 25% | 75.87 | 0.0 | |||||||
| 04 | 14:55 | S 15 G 30 | 16.09 | Fair | CLR | 24 | 3 | 25% | 25 | 75.87 | 0.0 | ||||||
| 04 | 14:35 | SW 15 G 28 | 16.09 | Fair | CLR | 23 | 2 | 25% | 75.9 | 0.0 | |||||||
| 04 | 14:15 | SW 19 | 16.09 | Fair | CLR | 23 | 2 | 25% | 75.92 | 0.0 | |||||||
| 04 | 13:55 | Vrbl 11 G 22 | 16.09 | Fair | CLR | 23 | 1 | 23% | 75.92 | 0.0 | |||||||
| 04 | 13:35 | W 7 G 33 | 16.09 | Fair | CLR | 22 | 1 | 25% | 75.95 | 0.0 | |||||||
| 04 | 13:10 | SW 15 G 30 | 16.09 | Fair | CLR | 22 | 2 | 27% | 75.97 | 0.0 | |||||||
| 04 | 12:55 | SW 24 G 35 | 16.09 | Fair | CLR | 22 | 2 | 27% | 75.97 | 0.0 | |||||||
| 04 | 12:35 | W 20 | 16.09 | Fair | CLR | 22 | 2 | 27% | 76 | 0.0 | |||||||
| 04 | 12:15 | SW 15 G 24 | 16.09 | Fair | CLR | 21 | 2 | 29% | 76.02 | 0.0 | |||||||
| 04 | 11:55 | SW 17 G 26 | 16.09 | Fair | CLR | 21 | 2 | 29% | 76.05 | 0.0 | |||||||
| 04 | 11:35 | SW 15 G 26 | 16.09 | Fair | CLR | 21 | 4 | 33% | 76.05 | 0.0 | |||||||
| 04 | 11:15 | SW 17 | 16.09 | Fair | CLR | 20 | 4 | 35% | 76.07 | 0.0 | |||||||
| 04 | 10:55 | SW 15 | 16.09 | Fair | CLR | 19 | 4 | 37% | 76.07 | 0.0 | |||||||
| 04 | 10:35 | W 19 | 16.09 | Fair | CLR | 19 | 5 | 40% | 76.07 | 0.0 | |||||||
| 04 | 09:55 | SW 19 G 31 | 16.09 | Fair | CLR | 17 | 6 | 49% | 76.07 | 0.0 | |||||||
| 04 | 09:35 | SW 20 | 16.09 | Fair | CLR | 17 | 6 | 49% | 76.1 | 0.0 | |||||||
| 04 | 09:15 | SW 15 G 33 | 16.09 | Fair | CLR | 16 | 7 | 55% | 76.12 | 0.0 | |||||||
| 04 | 08:55 | SW 17 | 16.09 | Fair | CLR | 15 | 9 | 68% | 76.12 | 0.0 | |||||||
| 04 | 08:35 | SW 15 G 31 | 16.09 | Fair | CLR | 14 | 10 | 77% | 76.15 | 0.0 | |||||||
| 04 | 08:15 | S 17 G 26 | 16.09 | Fair | CLR | 14 | 10 | 77% | 76.15 | 0.0 | |||||||
| 04 | 07:55 | SW 13 G 24 | 16.09 | Fair | CLR | 13 | 10 | 82% | 76.15 | 0.0 | |||||||
| 04 | 07:35 | SW 19 | 16.09 | Fair | CLR | 12 | 10 | 88% | 76.15 | 0.0 | |||||||
| 04 | 07:15 | SW 15 | 16.09 | A Few Clouds | FEW110 | 11 | 10 | 94% | 76.17 | 0.0 | |||||||
| 04 | 06:55 | S 11 | 16.09 | Mostly Cloudy | BKN110 | 11 | 9 | 88% | 76.17 | 0.0 | |||||||
| 04 | 06:35 | S 11 | 16.09 | Mostly Cloudy | BKN110 | 11 | 9 | 88% | 76.17 | 0.0 | |||||||
| 04 | 06:15 | S 13 | 16.09 | NULL | NULL | 11 | 9 | 88% | 76.17 | 0.0 | |||||||
| 04 | 05:55 | SW 13 | 16.09 | NULL | NULL | 11 | 9 | 88% | 76.17 | 0.0 | |||||||
| 04 | 05:35 | SW 13 | 16.09 | NULL | NULL | 11 | 9 | 88% | 76.17 | 0.0 | |||||||
| 04 | 05:15 | SW 13 | 16.09 | NULL | NULL | 10 | 8 | 88% | 8 | 76.17 | 0.0 | ||||||
| 04 | 04:55 | SW 15 G 28 | 16.09 | NULL | NULL | 10 | 8 | 88% | 8 | 76.17 | 0.0 | ||||||
| 04 | 04:35 | SW 13 G 24 | 16.09 | NULL | NULL | 9 | 7 | 87% | 7 | 76.17 | 0.0 | ||||||
| 04 | 04:15 | S 15 G 24 | 16.09 | NULL | NULL | 9 | 6 | 82% | 7 | 76.17 | 0.0 | ||||||
| 04 | 03:55 | SW 15 | 16.09 | NULL | NULL | 9 | 5 | 76% | 7 | 76.17 | 0.0 | ||||||
| 04 | 03:35 | SW 9 | 16.09 | NULL | NULL | 9 | 4 | 71% | 8 | 76.17 | 0.0 | ||||||
| 04 | 03:15 | SW 11 | 16.09 | NULL | NULL | 9 | 3 | 66% | 8 | 76.17 | 0.0 | ||||||
| 04 | 02:55 | SW 13 | 16.09 | NULL | NULL | 9 | 3 | 66% | 7 | 76.17 | 0.0 | ||||||
| 04 | 02:35 | SW 13 | 16.09 | NULL | NULL | 9 | 2 | 62% | 7 | 76.17 | 0.0 | ||||||
| 04 | 02:15 | SW 11 | 16.09 | NULL | NULL | 9 | 2 | 62% | 8 | 76.17 | 0.0 | ||||||
| 04 | 01:55 | SW 9 | 16.09 | NULL | NULL | 10 | 1 | 54% | 9 | 76.17 | 0.0 | ||||||
| 04 | 01:35 | SW 9 | 16.09 | NULL | NULL | 10 | 1 | 54% | 9 | 76.17 | 0.0 | ||||||
| 04 | 01:15 | SW 9 | 16.09 | NULL | NULL | 10 | 1 | 54% | 9 | 76.17 | 0.0 | ||||||
| 04 | 00:55 | SW 9 | 16.09 | NULL | NULL | 9 | 1 | 58% | 8 | 76.2 | 0.0 | ||||||
| 04 | 00:35 | SW 7 | 16.09 | NULL | NULL | 9 | 1 | 58% | 8 | 76.17 | 0.0 | ||||||
| 04 | 00:15 | SW 7 | 16.09 | NULL | NULL | 9 | 0 | 54% | 8 | 76.17 | 0.0 | ||||||
| 03 | 23:55 | SW 7 | 16.09 | NULL | NULL | 9 | 0 | 54% | 8 | 76.17 | 0.0 | ||||||
| 03 | 23:35 | SW 9 | 16.09 | NULL | NULL | 9 | 0 | 54% | 8 | 76.15 | 0.0 | ||||||
| 03 | 23:15 | SW 9 | 16.09 | NULL | NULL | 9 | 0 | 54% | 8 | 76.12 | 0.0 | ||||||
| 03 | 22:35 | SW 11 | 16.09 | NULL | NULL | 8 | 0 | 57% | 6 | 76.12 | 0.0 | ||||||
| 03 | 22:15 | SW 11 | 16.09 | NULL | NULL | 9 | 0 | 54% | 8 | 76.12 | 0.0 | ||||||
| Date | Time (edt) | Wind (kph) | Vis. (km) | Weather | Sky Cond. | Air | Dwpt | Max. | Min. | Relative Humidity | Wind Chill (°C) | Heat Index (°C) | altimeter (cm) | sea level (mb) | 1 hr | 3 hr | 6 hr |
| 6 hour | |||||||||||||||||
| Temperature (ºC) | Pressure | Precipitation (cm) | |||||||||||||||